When you browse on this site, cookies collect data to enhance your experience and personalize the content and advertising you see.
Visit our Privacy Policy to learn more. By continuing to use the site, you agree to this use of cookies and data.
  • en France
  • Liste des pays
  • À 7 jours
  • Température de l'eau
  • Carte météo
  • Widgets météo
  • user-avatar
    Se connecter

    Météo par heure à Kisumu

    Ce jour, 10 Avril, Vendredi

    Heure Température Précipitation Vent Pression Humidité
    00:00 +22°C° 0.2 mm 1 m/s 664 mmHg 88%
    01:00 +22°C° 0.2 mm 1 m/s 664 mmHg 88%
    02:00 +22°C° 0.2 mm 1 m/s 663 mmHg 88%
    03:00 +22°C° 0.6 mm 1 m/s 663 mmHg 89%
    04:00 +22°C° 0.6 mm 1 m/s 664 mmHg 90%
    05:00 +21°C° 0.6 mm 1 m/s 664 mmHg 91%
    06:00 +22°C° 0.5 mm 1 m/s 665 mmHg 87%
    07:00 +23°C° 0.5 mm 1 m/s 665 mmHg 83%
    08:00 +24°C° 0.5 mm 1 m/s 666 mmHg 78%
    09:00 +26°C° 0.1 mm 1 m/s 665 mmHg 72%
    10:00 +28°C° 0.1 mm 1 m/s 665 mmHg 65%
    11:00 +30°C° 0.1 mm 1 m/s 665 mmHg 58%
    12:00 +30°C° 0.3 mm 2 m/s 665 mmHg 57%
    13:00 +31°C° 0.3 mm 2 m/s 664 mmHg 56%
    14:00 +31°C° 0.3 mm 2 m/s 663 mmHg 54%
    15:00 +30°C° 0.4 mm 2 m/s 663 mmHg 60%
    16:00 +29°C° 0.4 mm 2 m/s 663 mmHg 66%
    17:00 +28°C° 0.4 mm 1 m/s 663 mmHg 72%
    18:00 +26°C° 0.5 mm 2 m/s 664 mmHg 76%
    19:00 +25°C° 0.5 mm 2 m/s 664 mmHg 79%
    20:00 +23°C° 0.5 mm 2 m/s 664 mmHg 82%
    21:00 +23°C° 0 mm 2 m/s 664 mmHg 82%
    22:00 +23°C° 0 mm 2 m/s 664 mmHg 81%
    23:00 +23°C° 0 mm 1 m/s 664 mmHg 81%

    Demain, 11 Avril, Samedi

    Heure Température Précipitation Vent Pression Humidité
    00:00 +22°C° 0 mm 1 m/s 664 mmHg 82%
    01:00 +21°C° 0 mm 2 m/s 663 mmHg 83%
    02:00 +20°C° 0 mm 2 m/s 663 mmHg 85%
    03:00 +20°C° 0 mm 2 m/s 663 mmHg 84%
    04:00 +20°C° 0 mm 2 m/s 663 mmHg 84%
    05:00 +19°C° 0 mm 2 m/s 663 mmHg 84%
    06:00 +21°C° 0 mm 2 m/s 664 mmHg 78%
    07:00 +24°C° 0 mm 2 m/s 665 mmHg 72%
    08:00 +26°C° 0 mm 2 m/s 666 mmHg 66%
    09:00 +28°C° 0 mm 1 m/s 666 mmHg 60%
    10:00 +30°C° 0 mm 1 m/s 665 mmHg 54%
    11:00 +32°C° 0 mm 1 m/s 665 mmHg 48%
    12:00 +32°C° 0 mm 2 m/s 665 mmHg 48%
    13:00 +32°C° 0 mm 2 m/s 664 mmHg 47%
    14:00 +33°C° 0 mm 3 m/s 663 mmHg 47%
    15:00 +30°C° 0.3 mm 3 m/s 663 mmHg 57%
    16:00 +29°C° 0.3 mm 3 m/s 663 mmHg 66%
    17:00 +27°C° 0.3 mm 4 m/s 662 mmHg 76%
    18:00 +26°C° 0.4 mm 3 m/s 663 mmHg 80%
    19:00 +24°C° 0.4 mm 2 m/s 663 mmHg 84%
    20:00 +23°C° 0.4 mm 1 m/s 664 mmHg 88%
    21:00 +23°C° 0.2 mm 1 m/s 664 mmHg 88%
    22:00 +22°C° 0.2 mm 1 m/s 664 mmHg 88%
    23:00 +22°C° 0.2 mm 1 m/s 664 mmHg 88%

    Après-demain, 12 Avril, Dimanche

    Heure Température Précipitation Vent Pression Humidité
    00:00 +22°C° 0.1 mm 1 m/s 664 mmHg 88%
    01:00 +22°C° 0.1 mm 1 m/s 664 mmHg 88%
    02:00 +21°C° 0.1 mm 1 m/s 663 mmHg 88%
    03:00 +21°C° 0 mm 1 m/s 663 mmHg 88%
    04:00 +20°C° 0 mm 2 m/s 663 mmHg 88%
    05:00 +19°C° 0 mm 2 m/s 663 mmHg 88%
    06:00 +21°C° 0 mm 2 m/s 664 mmHg 82%
    07:00 +24°C° 0 mm 2 m/s 665 mmHg 75%
    08:00 +25°C° 0 mm 2 m/s 666 mmHg 69%
    09:00 +27°C° 0 mm 1 m/s 666 mmHg 62%
    10:00 +29°C° 0 mm 1 m/s 666 mmHg 55%
    11:00 +31°C° 0 mm 1 m/s 665 mmHg 48%
    12:00 +32°C° 0 mm 2 m/s 665 mmHg 47%
    13:00 +32°C° 0 mm 2 m/s 664 mmHg 47%
    14:00 +33°C° 0 mm 3 m/s 664 mmHg 47%
    15:00 +30°C° 0.2 mm 3 m/s 663 mmHg 56%
    16:00 +29°C° 0.2 mm 4 m/s 663 mmHg 65%
    17:00 +27°C° 0.2 mm 4 m/s 663 mmHg 75%
    18:00 +25°C° 0.3 mm 3 m/s 663 mmHg 79%
    19:00 +24°C° 0.3 mm 2 m/s 664 mmHg 83%
    20:00 +23°C° 0.3 mm 1 m/s 664 mmHg 87%
    21:00 +23°C° 0.1 mm 1 m/s 664 mmHg 87%
    22:00 +23°C° 0.1 mm 1 m/s 664 mmHg 86%
    23:00 +23°C° 0.1 mm 1 m/s 664 mmHg 86%

    13 Avril, Lundi

    Heure Température Précipitation Vent Pression Humidité
    00:00 +22°C° 0.1 mm 1 m/s 664 mmHg 86%
    01:00 +22°C° 0.1 mm 1 m/s 664 mmHg 86%
    02:00 +21°C° 0.1 mm 2 m/s 663 mmHg 86%
    03:00 +20°C° 0 mm 2 m/s 663 mmHg 85%
    04:00 +20°C° 0 mm 2 m/s 663 mmHg 85%
    05:00 +20°C° 0 mm 2 m/s 664 mmHg 85%
    06:00 +23°C° 0 mm 2 m/s 664 mmHg 79%
    07:00 +24°C° 0 mm 1 m/s 665 mmHg 74%
    08:00 +26°C° 0 mm 1 m/s 666 mmHg 69%
    09:00 +28°C° 0 mm 1 m/s 666 mmHg 63%
    10:00 +30°C° 0 mm 1 m/s 666 mmHg 56%
    11:00 +31°C° 0 mm 2 m/s 665 mmHg 50%
    12:00 +31°C° 0.1 mm 2 m/s 665 mmHg 52%
    13:00 +31°C° 0.1 mm 3 m/s 664 mmHg 53%
    14:00 +32°C° 0.1 mm 4 m/s 663 mmHg 55%
    15:00 +30°C° 0.9 mm 4 m/s 663 mmHg 63%
    16:00 +28°C° 0.9 mm 3 m/s 663 mmHg 70%
    17:00 +27°C° 0.9 mm 3 m/s 663 mmHg 78%
    18:00 +25°C° 0.7 mm 2 m/s 663 mmHg 81%
    19:00 +24°C° 0.7 mm 2 m/s 663 mmHg 84%
    20:00 +23°C° 0.7 mm 1 m/s 663 mmHg 87%
    21:00 +23°C° 0.4 mm 1 m/s 664 mmHg 88%
    22:00 +22°C° 0.4 mm 1 m/s 664 mmHg 89%
    23:00 +22°C° 0.4 mm 1 m/s 664 mmHg 89%

    14 Avril, Mardi

    Heure Température Précipitation Vent Pression Humidité
    00:00 +22°C° 0.3 mm 1 m/s 664 mmHg 89%
    01:00 +22°C° 0.3 mm 1 m/s 663 mmHg 88%
    02:00 +21°C° 0.3 mm 2 m/s 663 mmHg 87%
    03:00 +20°C° 0.3 mm 2 m/s 663 mmHg 87%
    04:00 +20°C° 0.3 mm 2 m/s 663 mmHg 87%
    05:00 +20°C° 0.3 mm 2 m/s 664 mmHg 87%
    06:00 +23°C° 0.1 mm 2 m/s 664 mmHg 82%
    07:00 +24°C° 0.1 mm 1 m/s 665 mmHg 77%
    08:00 +26°C° 0.1 mm 1 m/s 666 mmHg 72%
    09:00 +27°C° 0.2 mm 1 m/s 666 mmHg 67%
    10:00 +29°C° 0.2 mm 2 m/s 666 mmHg 62%
    11:00 +30°C° 0.2 mm 2 m/s 665 mmHg 58%
    12:00 +30°C° 1.2 mm 2 m/s 665 mmHg 60%
    13:00 +30°C° 1.2 mm 3 m/s 664 mmHg 63%
    14:00 +29°C° 1.2 mm 3 m/s 663 mmHg 66%
    15:00 +28°C° 0.9 mm 3 m/s 663 mmHg 70%
    16:00 +28°C° 0.9 mm 3 m/s 663 mmHg 75%
    17:00 +27°C° 0.9 mm 2 m/s 663 mmHg 80%
    18:00 +26°C° 0.9 mm 2 m/s 663 mmHg 82%
    19:00 +24°C° 0.9 mm 2 m/s 664 mmHg 85%
    20:00 +23°C° 0.9 mm 1 m/s 664 mmHg 87%
    21:00 +23°C° 0.5 mm 1 m/s 664 mmHg 88%
    22:00 +23°C° 0.5 mm 1 m/s 664 mmHg 89%
    23:00 +23°C° 0.5 mm 1 m/s 664 mmHg 90%

    15 Avril, Mercredi

    Heure Température Précipitation Vent Pression Humidité
    00:00 +23°C° 0.2 mm 1 m/s 664 mmHg 89%
    01:00 +22°C° 0.2 mm 1 m/s 664 mmHg 89%
    02:00 +22°C° 0.2 mm 1 m/s 663 mmHg 88%
    03:00 +22°C° 0.4 mm 1 m/s 663 mmHg 87%
    04:00 +22°C° 0.4 mm 1 m/s 664 mmHg 87%
    05:00 +22°C° 0.4 mm 1 m/s 664 mmHg 86%
    06:00 +23°C° 0.3 mm 1 m/s 665 mmHg 82%
    07:00 +25°C° 0.3 mm 1 m/s 665 mmHg 79%
    08:00 +24°C° 0.3 mm 0 m/s 666 mmHg 75%
    09:00 +27°C° 0.4 mm 1 m/s 666 mmHg 71%
    10:00 +28°C° 0.4 mm 1 m/s 665 mmHg 67%
    11:00 +29°C° 0.4 mm 2 m/s 665 mmHg 62%
    12:00 +29°C° 0.9 mm 3 m/s 665 mmHg 65%
    13:00 +29°C° 0.9 mm 3 m/s 664 mmHg 68%
    14:00 +29°C° 0.9 mm 4 m/s 663 mmHg 71%
    15:00 +28°C° 1.4 mm 3 m/s 663 mmHg 76%
    16:00 +27°C° 1.4 mm 3 m/s 663 mmHg 81%
    17:00 +25°C° 1.4 mm 2 m/s 663 mmHg 86%
    18:00 +25°C° 1 mm 2 m/s 664 mmHg 87%
    19:00 +24°C° 1 mm 2 m/s 664 mmHg 88%
    20:00 +23°C° 1 mm 1 m/s 664 mmHg 89%
    21:00 +23°C° 0.3 mm 1 m/s 664 mmHg 89%
    22:00 +23°C° 0.3 mm 1 m/s 664 mmHg 89%
    23:00 +22°C° 0.3 mm 1 m/s 664 mmHg 89%
    Voir plus